| time (UTC) | temp C | wind direction | speed KPH | gust KPH | rain 1hr cm | rain 24hr cm | rain mn cm | humidity % | barometer mb |
| 20260505181702 | 28 | 228 | 11.3 | 12.9 | 0.00 | 0.00 | 0.00 | 38 | 1026.7 |
| 20260505181200 | 28 | 207 | 3.2 | 4.8 | 0.00 | 0.00 | 0.00 | 39 | 1026.5 |
| 20260505180655 | 27 | 145 | 3.2 | 4.8 | 0.00 | 0.00 | 0.00 | 41 | 1026.6 |
| 20260505180153 | 27 | 209 | 4.8 | 6.4 | 0.00 | 0.00 | 0.00 | 38 | 1026.6 |
| 20260505175649 | 27 | 287 | 1.6 | 14.5 | 0.00 | 0.00 | 0.00 | 38 | 1026.7 |
| 20260505175145 | 27 | 270 | 9.7 | 12.9 | 0.00 | 0.00 | 0.00 | 38 | 1026.7 |
| 20260505174642 | 27 | 207 | 8.0 | 12.9 | 0.00 | 0.00 | 0.00 | 40 | 1026.9 |
| 20260505174138 | 27 | 202 | 4.8 | 11.3 | 0.00 | 0.00 | 0.00 | 41 | 1027.0 |
| 20260505173635 | 26 | 203 | 3.2 | 6.4 | 0.00 | 0.00 | 0.00 | 40 | 1026.8 |
| 20260505173132 | 27 | 211 | 8.0 | 12.9 | 0.00 | 0.00 | 0.00 | 41 | 1026.9 |
| 20260505172629 | 27 | 183 | 11.3 | 14.5 | 0.00 | 0.00 | 0.00 | 40 | 1026.9 |
| 20260505172126 | 26 | 203 | 9.7 | 14.5 | 0.00 | 0.00 | 0.00 | 41 | 1027.2 |
| 20260505171621 | 27 | 206 | 3.2 | 6.4 | 0.00 | 0.00 | 0.00 | 41 | 1027.3 |
| 20260505171118 | 27 | 206 | 6.4 | 12.9 | 0.00 | 0.00 | 0.00 | 42 | 1027.2 |
| 20260505170615 | 26 | 242 | 6.4 | 12.9 | 0.00 | 0.00 | 0.00 | 42 | 1027.4 |
| 20260505170111 | 26 | 207 | 1.6 | 4.8 | 0.00 | 0.00 | 0.00 | 45 | 1027.4 |
| 20260505165606 | 26 | 254 | 4.8 | 12.9 | 0.00 | 0.00 | 0.00 | 43 | 1027.3 |
| 20260505165102 | 26 | 227 | 6.4 | 14.5 | 0.00 | 0.00 | 0.00 | 42 | 1027.3 |
| 20260505164558 | 26 | 214 | 8.0 | 12.9 | 0.00 | 0.00 | 0.00 | 44 | 1027.3 |
| 20260505164056 | 26 | 215 | 3.2 | 11.3 | 0.00 | 0.00 | 0.00 | 45 | 1027.5 |
| 20260505163554 | 26 | 206 | 6.4 | 6.4 | 0.00 | 0.00 | 0.00 | 44 | 1027.3 |
| 20260505163051 | 26 | 231 | 9.7 | 11.3 | 0.00 | 0.00 | 0.00 | 43 | 1027.6 |
| 20260505162549 | 26 | 207 | 6.4 | 11.3 | 0.00 | 0.00 | 0.00 | 44 | 1027.7 |
| 20260505162047 | 26 | 232 | 6.4 | 11.3 | 0.00 | 0.00 | 0.00 | 41 | 1027.7 |
| 20260505161543 | 26 | 230 | 6.4 | 11.3 | 0.00 | 0.00 | 0.00 | 45 | 1027.7 |
| 20260505161041 | 26 | 158 | 3.2 | 17.7 | 0.00 | 0.00 | 0.00 | 48 | 1027.6 |
| 20260505160539 | 25 | 173 | 8.0 | 11.3 | 0.00 | 0.00 | 0.00 | 47 | 1027.7 |
| 20260505153015 | 25 | 206 | 1.6 | 4.8 | 0.00 | 0.00 | 0.00 | 55 | 1027.8 |
| 20260505152512 | 24 | 199 | 3.2 | 11.3 | 0.00 | 0.00 | 0.00 | 56 | 1027.9 |
| 20260505152008 | 23 | 209 | 4.8 | 4.8 | 0.00 | 0.00 | 0.00 | 57 | 1028.2 |
| 20260505151503 | 23 | 203 | 3.2 | 9.7 | 0.00 | 0.00 | 0.00 | 57 | 1028.2 |
| 20260505151000 | 23 | 198 | 4.8 | 11.3 | 0.00 | 0.00 | 0.00 | 56 | 1028.4 |
| 20260505150457 | 23 | 187 | 3.2 | 11.3 | 0.00 | 0.00 | 0.00 | 57 | 1028.4 |
| 20260505140427 | 22 | 237 | 6.4 | 9.7 | 0.00 | 0.00 | 0.00 | 65 | 1027.8 |
| 20260505124840 | 18 | 197 | 3.2 | 3.2 | 0.00 | 0.00 | 0.00 | 72 | 1027.1 |
| 20260505124337 | 18 | 207 | 3.2 | 6.4 | 0.00 | 0.00 | 0.00 | 72 | 1027.1 |
| 20260505123833 | 18 | 174 | 0.0 | 1.6 | 0.00 | 0.00 | 0.00 | 71 | 1027.1 |
| 20260505123330 | 18 | 174 | 0.0 | 1.6 | 0.00 | 0.00 | 0.00 | 73 | 1027.1 |
| 20260505122826 | 18 | 176 | 0.0 | 0.0 | 0.00 | 0.00 | 0.00 | 74 | 1027.1 |
| 20260505122324 | 17 | 185 | 0.0 | 1.6 | 0.00 | 0.00 | 0.00 | 74 | 1026.9 |
| 20260505121820 | 17 | 185 | 0.0 | 0.0 | 0.00 | 0.00 | 0.00 | 76 | 1027.0 |
| 20260505121317 | 17 | 185 | 0.0 | 0.0 | 0.00 | 0.00 | 0.00 | 78 | 1026.9 |
| 20260505120813 | 16 | 185 | 1.6 | 1.6 | 0.00 | 0.00 | 0.00 | 79 | 1026.8 |
| 20260505120309 | 15 | 185 | 0.0 | 0.0 | 0.00 | 0.00 | 0.00 | 82 | 1027.0 |
| 20260505115808 | 15 | 185 | 0.0 | 0.0 | 0.00 | 0.00 | 0.00 | 87 | 1026.9 |
| 20260505115306 | 14 | 185 | 0.0 | 1.6 | 0.00 | 0.00 | 0.00 | 89 | 1026.6 |
| 20260505114803 | 13 | 185 | 0.0 | 0.0 | 0.00 | 0.00 | 0.00 | 91 | 1026.6 |
| 20260505114300 | 13 | 184 | 0.0 | 0.0 | 0.00 | 0.00 | 0.00 | 92 | 1026.7 |
| 20260505113756 | 12 | 184 | 0.0 | 0.0 | 0.00 | 0.00 | 0.00 | 92 | 1026.7 |
| 20260505113252 | 12 | 184 | 0.0 | 0.0 | 0.00 | 0.00 | 0.00 | 93 | 1026.5 |
| 20260505112748 | 12 | 184 | 0.0 | 0.0 | 0.00 | 0.00 | 0.00 | 93 | 1026.6 |
| 20260505112247 | 12 | 184 | 0.0 | 0.0 | 0.00 | 0.00 | 0.00 | 93 | 1026.7 |
| 20260505111747 | 12 | 184 | 0.0 | 0.0 | 0.00 | 0.00 | 0.00 | 94 | 1026.4 |
| 20260505111243 | 12 | 184 | 0.0 | 0.0 | 0.00 | 0.00 | 0.00 | 94 | 1026.6 |
| 20260505110739 | 11 | 184 | 0.0 | 0.0 | 0.00 | 0.00 | 0.00 | 94 | 1026.5 |
| 20260505110237 | 11 | 184 | 0.0 | 0.0 | 0.00 | 0.00 | 0.00 | 94 | 1026.4 |
| 20260505102212 | 11 | 185 | 0.0 | 0.0 | 0.00 | 0.00 | 0.00 | 93 | 1026.4 |
| 20260505101711 | 12 | 185 | 0.0 | 0.0 | 0.00 | 0.00 | 0.00 | 92 | 1026.1 |
| 20260505101206 | 12 | 185 | 0.0 | 0.0 | 0.00 | 0.00 | 0.00 | 92 | 1026.3 |
| 20260505100703 | 12 | 184 | 0.0 | 0.0 | 0.00 | 0.00 | 0.00 | 92 | 1026.0 |
| 20260505100200 | 12 | 185 | 0.0 | 0.0 | 0.00 | 0.00 | 0.00 | 92 | 1026.0 |
| 20260505095655 | 12 | 184 | 0.0 | 0.0 | 0.00 | 0.00 | 0.00 | 92 | 1026.1 |
| 20260505095153 | 12 | 184 | 0.0 | 0.0 | 0.00 | 0.00 | 0.00 | 92 | 1026.2 |
| 20260505094649 | 12 | 185 | 0.0 | 0.0 | 0.00 | 0.00 | 0.00 | 92 | 1025.9 |
| 20260505094145 | 12 | 185 | 0.0 | 0.0 | 0.00 | 0.00 | 0.00 | 92 | 1026.2 |
| 20260505093642 | 12 | 184 | 0.0 | 0.0 | 0.00 | 0.00 | 0.00 | 92 | 1026.0 |
| 20260505093139 | 12 | 184 | 0.0 | 0.0 | 0.00 | 0.00 | 0.00 | 92 | 1026.0 |
| 20260505092636 | 12 | 184 | 0.0 | 0.0 | 0.00 | 0.00 | 0.00 | 91 | 1025.9 |